SQ9PDE-13 Weather Reports


time (UTC)temp
C
wind
direction
speed
KPH
gust
KPH
rain 1hr
cm
rain 24hr
cm
rain mn
cm
humidity
%
barometer
mb
20260507125012 20 0.0 0.0 0.00 0.00 0.00 59 1009.8
20260507124511 20 0.0 0.0 0.00 0.00 0.00 58 1009.8
20260507124011 20 0.0 0.0 0.00 0.00 0.00 58 1009.9
20260507123010 20 0.0 0.0 0.00 0.00 0.00 58 1009.8
20260507122509 20 0.0 0.0 0.00 0.00 0.00 57 1009.7
20260507122008 19 0.0 0.0 0.00 0.00 0.00 60 1009.9
20260507121508 20 0.0 0.0 0.00 0.00 0.00 59 1009.8
20260507121007 20 0.0 0.0 0.00 0.00 0.00 60 1009.8
20260507120507 21 0.0 0.0 0.00 0.00 0.00 59 1009.7
20260507120006 21 0.0 0.0 0.00 0.00 0.00 59 1009.7
20260507115506 20 0.0 0.0 0.00 0.00 0.00 62 1010.0
20260507115005 20 0.0 0.0 0.00 0.00 0.00 62 1009.9
20260507114505 21 0.0 0.0 0.00 0.00 0.00 61 1009.7
20260507114036 21 0.0 0.0 0.00 0.00 0.00 61 1009.9
20260507114004 21 0.0 0.0 0.00 0.00 0.00 61 1009.9
20260507113504 21 0.0 0.0 0.00 0.00 0.00 62 1009.9
20260507113004 20 0.0 0.0 0.00 0.00 0.00 62 1010.1
20260507112503 20 0.0 0.0 0.00 0.00 0.00 65 1010.3
20260507112002 20 0.0 0.0 0.00 0.00 0.00 65 1010.2
20260507111503 20 0.0 0.0 0.00 0.00 0.00 64 1010.3
20260507111001 20 0.0 0.0 0.00 0.00 0.00 64 1010.2
20260507110501 19 0.0 0.0 0.00 0.00 0.00 65 1010.3
20260507110124 20 0.0 0.0 0.00 0.00 0.00 64 1010.0
20260507110000 20 0.0 0.0 0.00 0.00 0.00 64 1010.0
20260507105546 20 0.0 0.0 0.00 0.00 0.00 64 1010.0
20260507105459 20 0.0 0.0 0.00 0.00 0.00 64 1010.0
20260507104959 20 0.0 0.0 0.00 0.00 0.00 64 1010.0
20260507104458 19 0.0 0.0 0.00 0.00 0.00 65 1010.0
20260507103958 20 0.0 0.0 0.00 0.00 0.00 63 1009.9
20260507103457 19 0.0 0.0 0.00 0.00 0.00 67 1010.1
20260507102957 19 0.0 0.0 0.00 0.00 0.00 66 1010.1
20260507102456 20 0.0 0.0 0.00 0.00 0.00 66 1009.9
20260507101956 19 0.0 0.0 0.00 0.00 0.00 69 1010.1
20260507101455 20 0.0 0.0 0.00 0.00 0.00 67 1009.9
20260507101039 20 0.0 0.0 0.00 0.00 0.00 67 1009.8
20260507100955 20 0.0 0.0 0.00 0.00 0.00 67 1009.8
20260507100454 19 0.0 0.0 0.00 0.00 0.00 69 1009.9
20260507095954 20 0.0 0.0 0.00 0.00 0.00 69 1009.8
20260507095617 19 0.0 0.0 0.00 0.00 0.00 70 1009.9
20260507095544 19 0.0 0.0 0.00 0.00 0.00 70 1009.9
20260507095453 19 0.0 0.0 0.00 0.00 0.00 70 1009.9
20260507094953 18 0.0 0.0 0.00 0.00 0.00 71 1009.9
20260507094452 19 0.0 0.0 0.00 0.00 0.00 70 1009.8
20260507093952 19 0.0 0.0 0.00 0.00 0.00 71 1009.9
20260507093534 19 0.0 0.0 0.00 0.00 0.00 72 1009.8
20260507093451 19 0.0 0.0 0.00 0.00 0.00 72 1009.8
20260507092951 18 0.0 0.0 0.00 0.00 0.00 73 1009.7
20260507092450 18 0.0 0.0 0.00 0.00 0.00 73 1009.7
20260507091950 18 0.0 0.0 0.00 0.00 0.00 73 1009.7
20260507091449 17 0.0 0.0 0.00 0.00 0.00 74 1009.6
20260507090949 18 0.0 0.0 0.00 0.00 0.00 73 1009.4
20260507090448 17 0.0 0.0 0.00 0.00 0.00 73 1009.5
20260507085947 17 0.0 0.0 0.00 0.00 0.00 73 1009.4
20260507085523 18 0.0 0.0 0.00 0.00 0.00 72 1009.2
20260507085447 18 0.0 0.0 0.00 0.00 0.00 72 1009.2
20260507084946 18 0.0 0.0 0.00 0.00 0.00 73 1009.3
20260507084446 18 0.0 0.0 0.00 0.00 0.00 74 1009.3
20260507083945 18 0.0 0.0 0.00 0.00 0.00 74 1009.2
20260507083445 17 0.0 0.0 0.00 0.00 0.00 76 1009.2
20260507082944 17 0.0 0.0 0.00 0.00 0.00 76 1009.1
20260507082444 17 0.0 0.0 0.00 0.00 0.00 76 1009.1
20260507081943 17 0.0 0.0 0.00 0.00 0.00 75 1009.0
20260507081443 17 0.0 0.0 0.00 0.00 0.00 76 1009.0
20260507080942 17 0.0 0.0 0.00 0.00 0.00 76 1008.9
20260507080442 16 0.0 0.0 0.00 0.00 0.00 76 1009.0
20260507075941 17 0.0 0.0 0.00 0.00 0.00 75 1008.8
20260507075441 17 0.0 0.0 0.00 0.00 0.00 73 1008.7
20260507074940 17 0.0 0.0 0.00 0.00 0.00 74 1008.7
20260507074513 17 0.0 0.0 0.00 0.00 0.00 73 1008.5
20260507074440 17 0.0 0.0 0.00 0.00 0.00 73 1008.5
20260507073939 18 0.0 0.0 0.00 0.00 0.00 73 1008.4
20260507073439 18 0.0 0.0 0.00 0.00 0.00 75 1008.7
20260507072938 17 0.0 0.0 0.00 0.00 0.00 76 1008.6
20260507072438 18 0.0 0.0 0.00 0.00 0.00 75 1008.5
20260507071937 17 0.0 0.0 0.00 0.00 0.00 76 1008.4
20260507071436 17 0.0 0.0 0.00 0.00 0.00 77 1008.6
20260507070936 17 0.0 0.0 0.00 0.00 0.00 77 1008.5
20260507070519 17 0.0 0.0 0.00 0.00 0.00 79 1008.6
20260507070435 17 0.0 0.0 0.00 0.00 0.00 79 1008.6
20260507065935 16 0.0 0.0 0.00 0.00 0.00 78 1008.5
20260507065434 16 0.0 0.0 0.00 0.00 0.00 79 1008.5
20260507065014 16 0.0 0.0 0.00 0.00 0.00 78 1008.3
20260507064934 16 0.0 0.0 0.00 0.00 0.00 78 1008.3
20260507064433 16 0.0 0.0 0.00 0.00 0.00 79 1008.4
20260507063933 16 0.0 0.0 0.00 0.00 0.00 79 1008.3
20260507063510 16 0.0 0.0 0.00 0.00 0.00 79 1008.3
20260507063432 16 0.0 0.0 0.00 0.00 0.00 79 1008.3
20260507062932 16 0.0 0.0 0.00 0.00 0.00 78 1008.2
20260507062431 16 0.0 0.0 0.00 0.00 0.00 76 1008.2
20260507061931 15 0.0 0.0 0.00 0.00 0.00 77 1008.2
20260507061430 15 0.0 0.0 0.00 0.00 0.00 76 1008.1
20260507061024 15 0.0 0.0 0.00 0.00 0.00 75 1008.1
20260507060930 15 0.0 0.0 0.00 0.00 0.00 75 1008.1
20260507060510 16 0.0 0.0 0.00 0.00 0.00 75 1008.0
20260507060429 16 0.0 0.0 0.00 0.00 0.00 75 1008.0
20260507060016 16 0.0 0.0 0.00 0.00 0.00 75 1008.0
20260507055929 16 0.0 0.0 0.00 0.00 0.00 75 1008.0
20260507055428 16 0.0 0.0 0.00 0.00 0.00 75 1007.9
20260507055008 16 0.0 0.0 0.00 0.00 0.00 74 1007.9
20260507054928 16 0.0 0.0 0.00 0.00 0.00 74 1007.9
20260507054508 16 0.0 0.0 0.00 0.00 0.00 74 1007.9
20260507054427 16 0.0 0.0 0.00 0.00 0.00 74 1007.9
20260507053927 16 0.0 0.0 0.00 0.00 0.00 73 1007.8
20260507053524 16 0.0 0.0 0.00 0.00 0.00 73 1007.8
20260507053426 16 0.0 0.0 0.00 0.00 0.00 73 1007.8
20260507052926 16 0.0 0.0 0.00 0.00 0.00 73 1007.7
20260507052425 16 0.0 0.0 0.00 0.00 0.00 73 1007.7
20260507051924 16 0.0 0.0 0.00 0.00 0.00 72 1007.6
20260507051424 16 0.0 0.0 0.00 0.00 0.00 72 1007.6
20260507051016 15 0.0 0.0 0.00 0.00 0.00 72 1007.6
20260507050923 15 0.0 0.0 0.00 0.00 0.00 72 1007.6
20260507050423 15 0.0 0.0 0.00 0.00 0.00 72 1007.5
20260507045955 15 0.0 0.0 0.00 0.00 0.00 72 1007.5
20260507045922 15 0.0 0.0 0.00 0.00 0.00 72 1007.5
20260507045453 15 0.0 0.0 0.00 0.00 0.00 71 1007.4
20260507045422 15 0.0 0.0 0.00 0.00 0.00 71 1007.4
20260507045005 16 0.0 0.0 0.00 0.00 0.00 71 1007.4
20260507044921 16 0.0 0.0 0.00 0.00 0.00 71 1007.4
20260507044421 15 0.0 0.0 0.00 0.00 0.00 71 1007.4
20260507043920 15 0.0 0.0 0.00 0.00 0.00 71 1007.3
20260507043420 15 0.0 0.0 0.00 0.00 0.00 70 1007.3
20260507042919 16 0.0 0.0 0.00 0.00 0.00 70 1007.2
20260507042653 16 0.0 0.0 0.00 0.00 0.00 70 1007.1
20260507042512 16 0.0 0.0 0.00 0.00 0.00 70 1007.1
20260507042419 16 0.0 0.0 0.00 0.00 0.00 70 1007.1
20260507041957 16 0.0 0.0 0.00 0.00 0.00 70 1007.1
20260507041918 16 0.0 0.0 0.00 0.00 0.00 70 1007.1
20260507041418 15 0.0 0.0 0.00 0.00 0.00 70 1006.9
20260507040917 15 0.0 0.0 0.00 0.00 0.00 69 1006.9
20260507040417 16 0.0 0.0 0.00 0.00 0.00 69 1006.9
20260507035916 16 0.0 0.0 0.00 0.00 0.00 68 1006.8
20260507035505 16 0.0 0.0 0.00 0.00 0.00 68 1006.8
20260507035416 16 0.0 0.0 0.00 0.00 0.00 68 1006.8
20260507035007 16 0.0 0.0 0.00 0.00 0.00 68 1006.7
20260507034915 16 0.0 0.0 0.00 0.00 0.00 68 1006.7
20260507034447 16 0.0 0.0 0.00 0.00 0.00 68 1006.7
20260507034414 16 0.0 0.0 0.00 0.00 0.00 68 1006.7
20260507033914 16 0.0 0.0 0.00 0.00 0.00 68 1006.7
20260507033414 16 0.0 0.0 0.00 0.00 0.00 68 1006.6
20260507032913 16 0.0 0.0 0.00 0.00 0.00 66 1006.5
20260507032412 16 0.0 0.0 0.00 0.00 0.00 66 1006.5
20260507031912 16 0.0 0.0 0.00 0.00 0.00 67 1006.5
20260507031507 16 0.0 0.0 0.00 0.00 0.00 67 1006.5
20260507031411 16 0.0 0.0 0.00 0.00 0.00 67 1006.5
20260507030911 16 0.0 0.0 0.00 0.00 0.00 67 1006.5
20260507030410 15 0.0 0.0 0.00 0.00 0.00 68 1006.5
20260507030002 16 0.0 0.0 0.00 0.00 0.00 67 1006.5
20260507025910 16 0.0 0.0 0.00 0.00 0.00 67 1006.5
20260507025556 16 0.0 0.0 0.00 0.00 0.00 67 1006.4
20260507025517 16 0.0 0.0 0.00 0.00 0.00 67 1006.4
20260507025409 16 0.0 0.0 0.00 0.00 0.00 67 1006.4
20260507024909 16 0.0 0.0 0.00 0.00 0.00 66 1006.4
20260507024408 16 0.0 0.0 0.00 0.00 0.00 67 1006.4
20260507023908 16 0.0 0.0 0.00 0.00 0.00 67 1006.4
20260507023440 15 0.0 0.0 0.00 0.00 0.00 68 1006.4
20260507023407 15 0.0 0.0 0.00 0.00 0.00 68 1006.4
20260507022907 15 0.0 0.0 0.00 0.00 0.00 69 1006.4
20260507022406 15 0.0 0.0 0.00 0.00 0.00 70 1006.4
20260507021906 15 0.0 0.0 0.00 0.00 0.00 70 1006.4
20260507021405 15 0.0 0.0 0.00 0.00 0.00 67 1006.3
20260507020905 15 0.0 0.0 0.00 0.00 0.00 66 1006.1
20260507020404 15 0.0 0.0 0.00 0.00 0.00 67 1006.2
20260507015903 15 0.0 0.0 0.00 0.00 0.00 66 1006.2
20260507015403 15 0.0 0.0 0.00 0.00 0.00 67 1006.2
20260507014903 15 0.0 0.0 0.00 0.00 0.00 67 1006.2
20260507014402 15 0.0 0.0 0.00 0.00 0.00 68 1006.1
20260507014103 15 0.0 0.0 0.00 0.00 0.00 68 1006.2
20260507013901 15 0.0 0.0 0.00 0.00 0.00 68 1006.2
20260507013401 15 0.0 0.0 0.00 0.00 0.00 69 1006.1
20260507012900 15 0.0 0.0 0.00 0.00 0.00 68 1006.1
20260507012400 15 0.0 0.0 0.00 0.00 0.00 67 1006.0
20260507011859 15 0.0 0.0 0.00 0.00 0.00 67 1006.1
20260507011454 15 0.0 0.0 0.00 0.00 0.00 67 1006.0
20260507011359 15 0.0 0.0 0.00 0.00 0.00 67 1006.0
20260507011357 16 0.0 0.0 0.00 0.00 0.00 66 1005.9
20260507010858 16 0.0 0.0 0.00 0.00 0.00 66 1005.9
20260507010358 16 0.0 0.0 0.00 0.00 0.00 65 1005.8
20260507005857 16 0.0 0.0 0.00 0.00 0.00 65 1005.8
20260507005357 16 0.0 0.0 0.00 0.00 0.00 65 1005.8
20260507004856 16 0.0 0.0 0.00 0.00 0.00 64 1005.8
20260507004356 16 0.0 0.0 0.00 0.00 0.00 63 1005.6
20260507004025 16 0.0 0.0 0.00 0.00 0.00 63 1005.7
20260507003855 16 0.0 0.0 0.00 0.00 0.00 63 1005.7
20260507003355 16 0.0 0.0 0.00 0.00 0.00 62 1005.7
20260507002854 16 0.0 0.0 0.00 0.00 0.00 62 1005.7
20260507002603 16 0.0 0.0 0.00 0.00 0.00 61 1005.6
20260507002354 16 0.0 0.0 0.00 0.00 0.00 61 1005.6
20260507002003 16 0.0 0.0 0.00 0.00 0.00 61 1005.6
20260507001853 16 0.0 0.0 0.00 0.00 0.00 61 1005.6
20260507001541 17 0.0 0.0 0.00 0.00 0.00 61 1005.7
20260507001353 17 0.0 0.0 0.00 0.00 0.00 61 1005.7
20260507000948 17 0.0 0.0 0.00 0.00 0.00 61 1005.6
20260507000852 17 0.0 0.0 0.00 0.00 0.00 61 1005.6
20260507000351 17 0.0 0.0 0.00 0.00 0.00 60 1005.7
20260506235851 17 0.0 0.0 0.00 0.00 0.00 60 1005.7
20260506235350 17 0.0 0.0 0.00 0.00 0.00 59 1005.7
20260506235002 17 0.0 0.0 0.00 0.00 0.00 58 1005.6
20260506234850 17 0.0 0.0 0.00 0.00 0.00 58 1005.6
20260506234454 17 0.0 0.0 0.00 0.00 0.00 58 1005.7
20260506234349 17 0.0 0.0 0.00 0.00 0.00 58 1005.7
20260506234010 17 0.0 0.0 0.00 0.00 0.00 58 1005.6
20260506233933 17 0.0 0.0 0.00 0.00 0.00 58 1005.6
20260506233849 17 0.0 0.0 0.00 0.00 0.00 58 1005.6
20260506233348 17 0.0 0.0 0.00 0.00 0.00 58 1005.6
20260506232848 17 0.0 0.0 0.00 0.00 0.00 58 1005.7
20260506232347 17 0.0 0.0 0.00 0.00 0.00 59 1005.8
20260506231847 16 0.0 0.0 0.00 0.00 0.00 61 1005.8
20260506231346 16 0.0 0.0 0.00 0.00 0.00 59 1005.7
20260506230846 16 0.0 0.0 0.00 0.00 0.00 60 1005.8
20260506230345 16 0.0 0.0 0.00 0.00 0.00 60 1005.9
20260506225943 16 0.0 0.0 0.00 0.00 0.00 60 1005.9
20260506225845 16 0.0 0.0 0.00 0.00 0.00 60 1005.9
20260506225454 16 0.0 0.0 0.00 0.00 0.00 60 1005.9
20260506225354 16 0.0 0.0 0.00 0.00 0.00 60 1005.9
20260506225344 16 0.0 0.0 0.00 0.00 0.00 60 1005.9
20260506224844 16 0.0 0.0 0.00 0.00 0.00 60 1005.8
20260506224501 16 0.0 0.0 0.00 0.00 0.00 60 1005.8
20260506224343 16 0.0 0.0 0.00 0.00 0.00 60 1005.8
20260506223843 16 0.0 0.0 0.00 0.00 0.00 59 1005.8
20260506223342 16 0.0 0.0 0.00 0.00 0.00 59 1005.7
20260506222943 17 0.0 0.0 0.00 0.00 0.00 59 1005.7
20260506222842 17 0.0 0.0 0.00 0.00 0.00 59 1005.7
20260506222341 16 0.0 0.0 0.00 0.00 0.00 59 1005.7
20260506221841 16 0.0 0.0 0.00 0.00 0.00 60 1005.7
20260506221340 16 0.0 0.0 0.00 0.00 0.00 60 1005.8
20260506220953 16 0.0 0.0 0.00 0.00 0.00 60 1005.9
20260506220919 16 0.0 0.0 0.00 0.00 0.00 60 1005.9
20260506220839 16 0.0 0.0 0.00 0.00 0.00 60 1005.9
20260506220348 16 0.0 0.0 0.00 0.00 0.00 60 1005.8
20260506220339 16 0.0 0.0 0.00 0.00 0.00 60 1005.8
20260506215839 16 0.0 0.0 0.00 0.00 0.00 60 1005.8
20260506215455 16 0.0 0.0 0.00 0.00 0.00 59 1005.7
20260506215338 16 0.0 0.0 0.00 0.00 0.00 59 1005.7
20260506214837 16 0.0 0.0 0.00 0.00 0.00 59 1005.8
20260506214337 16 0.0 0.0 0.00 0.00 0.00 59 1005.9
20260506213836 16 0.0 0.0 0.00 0.00 0.00 58 1005.8
20260506213336 17 0.0 0.0 0.00 0.00 0.00 58 1005.7
20260506212835 17 0.0 0.0 0.00 0.00 0.00 57 1005.7
20260506212335 17 0.0 0.0 0.00 0.00 0.00 57 1005.7
20260506211834 17 0.0 0.0 0.00 0.00 0.00 57 1005.7
20260506211334 17 0.0 0.0 0.00 0.00 0.00 57 1005.7
20260506210833 17 0.0 0.0 0.00 0.00 0.00 57 1005.6
20260506210333 17 0.0 0.0 0.00 0.00 0.00 58 1005.6
20260506205832 17 0.0 0.0 0.00 0.00 0.00 58 1005.6
20260506205332 17 0.0 0.0 0.00 0.00 0.00 57 1005.5
20260506204831 17 0.0 0.0 0.00 0.00 0.00 57 1005.6
20260506204331 17 0.0 0.0 0.00 0.00 0.00 57 1005.6
20260506203830 17 0.0 0.0 0.00 0.00 0.00 57 1005.5
20260506203330 17 0.0 0.0 0.00 0.00 0.00 57 1005.6
20260506202829 17 0.0 0.0 0.00 0.00 0.00 56 1005.6
20260506202329 17 0.0 0.0 0.00 0.00 0.00 56 1005.5
20260506201828 17 0.0 0.0 0.00 0.00 0.00 56 1005.5
20260506201328 17 0.0 0.0 0.00 0.00 0.00 56 1005.5
20260506200827 17 0.0 0.0 0.00 0.00 0.00 56 1005.5
20260506200326 17 0.0 0.0 0.00 0.00 0.00 55 1005.4
20260506195826 17 0.0 0.0 0.00 0.00 0.00 55 1005.5
20260506195409 17 0.0 0.0 0.00 0.00 0.00 55 1005.5
20260506195325 17 0.0 0.0 0.00 0.00 0.00 55 1005.5
20260506194825 17 0.0 0.0 0.00 0.00 0.00 55 1005.4
20260506194359 17 0.0 0.0 0.00 0.00 0.00 55 1005.4
20260506194324 17 0.0 0.0 0.00 0.00 0.00 55 1005.4
20260506193824 17 0.0 0.0 0.00 0.00 0.00 54 1005.4
20260506193323 17 0.0 0.0 0.00 0.00 0.00 53 1005.4
20260506192823 17 0.0 0.0 0.00 0.00 0.00 52 1005.3
20260506192322 17 0.0 0.0 0.00 0.00 0.00 51 1005.2
20260506191822 17 0.0 0.0 0.00 0.00 0.00 50 1005.1
20260506191321 17 0.0 0.0 0.00 0.00 0.00 50 1005.2
20260506190821 18 0.0 0.0 0.00 0.00 0.00 49 1005.1
20260506190320 17 0.0 0.0 0.00 0.00 0.00 50 1005.1
20260506185820 18 0.0 0.0 0.00 0.00 0.00 49 1005.0
20260506185319 18 0.0 0.0 0.00 0.00 0.00 48 1004.9
20260506184819 18 0.0 0.0 0.00 0.00 0.00 47 1004.8
20260506184318 18 0.0 0.0 0.00 0.00 0.00 47 1004.8
20260506183818 18 0.0 0.0 0.00 0.00 0.00 46 1004.7
20260506183317 19 0.0 0.0 0.00 0.00 0.00 45 1004.6
20260506182817 19 0.0 0.0 0.00 0.00 0.00 45 1004.6
20260506182316 19 0.0 0.0 0.00 0.00 0.00 45 1004.5
20260506181816 19 0.0 0.0 0.00 0.00 0.00 45 1004.5
20260506181315 20 0.0 0.0 0.00 0.00 0.00 45 1004.4
20260506180814 20 0.0 0.0 0.00 0.00 0.00 44 1004.3
20260506180314 20 0.0 0.0 0.00 0.00 0.00 44 1004.2
20260506175813 20 0.0 0.0 0.00 0.00 0.00 44 1004.2
20260506175313 20 0.0 0.0 0.00 0.00 0.00 45 1004.3
20260506174812 20 0.0 0.0 0.00 0.00 0.00 45 1004.2
20260506174312 20 0.0 0.0 0.00 0.00 0.00 45 1004.3
20260506173811 20 0.0 0.0 0.00 0.00 0.00 45 1004.2
20260506173311 20 0.0 0.0 0.00 0.00 0.00 44 1004.2
20260506172810 20 0.0 0.0 0.00 0.00 0.00 44 1004.3
20260506172310 20 0.0 0.0 0.00 0.00 0.00 44 1004.3
20260506171809 20 0.0 0.0 0.00 0.00 0.00 44 1004.2
20260506171309 21 0.0 0.0 0.00 0.00 0.00 43 1004.2
20260506170808 21 0.0 0.0 0.00 0.00 0.00 43 1004.2
20260506170308 21 0.0 0.0 0.00 0.00 0.00 42 1004.2
20260506165838 21 0.0 0.0 0.00 0.00 0.00 40 1004.1
20260506165807 21 0.0 0.0 0.00 0.00 0.00 40 1004.1
20260506165307 21 0.0 0.0 0.00 0.00 0.00 41 1004.1
20260506164903 21 0.0 0.0 0.00 0.00 0.00 43 1004.1
20260506164806 21 0.0 0.0 0.00 0.00 0.00 43 1004.1
20260506164306 21 0.0 0.0 0.00 0.00 0.00 44 1004.4
20260506163805 21 0.0 0.0 0.00 0.00 0.00 44 1004.3
20260506163305 21 0.0 0.0 0.00 0.00 0.00 43 1004.3
20260506162855 22 0.0 0.0 0.00 0.00 0.00 44 1004.2
20260506162804 22 0.0 0.0 0.00 0.00 0.00 44 1004.2
20260506162523 22 0.0 0.0 0.00 0.00 0.00 43 1004.1
20260506162306 22 0.0 0.0 0.00 0.00 0.00 43 1004.1
20260506161340 22 0.0 0.0 0.00 0.00 0.00 41 1003.9
20260506161302 22 0.0 0.0 0.00 0.00 0.00 41 1003.9
20260506160802 23 0.0 0.0 0.00 0.00 0.00 41 1003.8
20260506160301 23 0.0 0.0 0.00 0.00 0.00 40 1003.6
20260506155801 23 0.0 0.0 0.00 0.00 0.00 40 1003.7
20260506155300 23 0.0 0.0 0.00 0.00 0.00 41 1003.8
20260506154800 23 0.0 0.0 0.00 0.00 0.00 39 1003.8
20260506154259 23 0.0 0.0 0.00 0.00 0.00 40 1003.9
20260506153759 24 0.0 0.0 0.00 0.00 0.00 40 1003.8
20260506153258 24 0.0 0.0 0.00 0.00 0.00 40 1003.7
20260506152840 24 0.0 0.0 0.00 0.00 0.00 41 1003.8
20260506152758 24 0.0 0.0 0.00 0.00 0.00 41 1003.8
20260506152328 24 0.0 0.0 0.00 0.00 0.00 41 1003.9
20260506152257 24 0.0 0.0 0.00 0.00 0.00 41 1003.9
20260506151757 25 0.0 0.0 0.00 0.00 0.00 41 1003.8
20260506151256 24 0.0 0.0 0.00 0.00 0.00 41 1003.9
20260506150756 25 0.0 0.0 0.00 0.00 0.00 41 1003.9
20260506150302 24 0.0 0.0 0.00 0.00 0.00 40 1003.9
20260506145755 24 0.0 0.0 0.00 0.00 0.00 42 1004.1
20260506145254 24 0.0 0.0 0.00 0.00 0.00 42 1004.2
20260506144754 24 0.0 0.0 0.00 0.00 0.00 41 1004.3
20260506144326 23 0.0 0.0 0.00 0.00 0.00 41 1004.2
20260506144253 23 0.0 0.0 0.00 0.00 0.00 41 1004.2
20260506143753 24 0.0 0.0 0.00 0.00 0.00 41 1004.3
20260506143252 24 0.0 0.0 0.00 0.00 0.00 40 1004.3
20260506142751 24 0.0 0.0 0.00 0.00 0.00 41 1004.3
20260506142251 23 0.0 0.0 0.00 0.00 0.00 41 1004.5
20260506141751 23 0.0 0.0 0.00 0.00 0.00 40 1004.5
20260506141250 23 0.0 0.0 0.00 0.00 0.00 40 1004.5
20260506140749 23 0.0 0.0 0.00 0.00 0.00 41 1004.5
20260506140249 24 0.0 0.0 0.00 0.00 0.00 40 1004.3
20260506135748 24 0.0 0.0 0.00 0.00 0.00 42 1004.4
20260506135248 24 0.0 0.0 0.00 0.00 0.00 43 1004.4
20260506134747 24 0.0 0.0 0.00 0.00 0.00 43 1004.4
20260506134247 24 0.0 0.0 0.00 0.00 0.00 43 1004.4
20260506133746 23 0.0 0.0 0.00 0.00 0.00 43 1004.6
20260506133246 24 0.0 0.0 0.00 0.00 0.00 44 1004.6
20260506132745 24 0.0 0.0 0.00 0.00 0.00 44 1004.6
20260506132245 25 0.0 0.0 0.00 0.00 0.00 45 1004.4
20260506131744 23 0.0 0.0 0.00 0.00 0.00 46 1004.8
20260506131244 25 0.0 0.0 0.00 0.00 0.00 46 1004.5
20260506130743 23 0.0 0.0 0.00 0.00 0.00 46 1005.0
20260506130243 23 0.0 0.0 0.00 0.00 0.00 46 1004.9
20260506125742 23 0.0 0.0 0.00 0.00 0.00 45 1004.8
20260506125242 23 0.0 0.0 0.00 0.00 0.00 44 1004.8